User: anonymous   Login
Location: Caltech
(34.1382°N, 118.1253°W)
Time: 07:00:39
(UTC-08:00)
Language:

Lacrosse 5 - Orbit

View from above orbital plane
View from above orbital plane
View from above satellite
View from above satellite

Ground track
Ground track

The orbit data is extracted from the following two-line orbital elements,

1 28646U 05016A   15059.80433877 0.00000000  00000-0  00000-0 0    01
2 28646  57.0110  18.8035 0008000 129.5994 230.4006 14.52026841    02
Epoch (UTC): 28 February 2015 19:18:14
Eccentricity: 0.0008000
inclination: 57.0110°
perigee height: 713 km
apogee height: 725 km
right ascension of ascending node: 18.8035°
argument of perigee: 129.5994°
revolutions per day: 14.52026841
mean anomaly at epoch: 230.4006°
orbit number at epoch: 0

The dashed part of the orbit path shows where the satellite is in the earth's shadow,  

DLR